KK5DC Weather Reports


Display with metric or nautical units.
time (UTC)temp
F
wind
direction
speed
MPH
gust
MPH
rain 1hr
in
rain 24hr
in
rain mn
in
humidity
%
barometer
mb
20260904162008 90 196 6.0 9.0 0.00 0.01 0.01 66 1015.7
20260904162002 90 157 2.0 7.0 0.00 0.01 0.01 66 1016.3
20260904161525 89 227 4.0 9.0 0.00 0.01 0.01 65 1015.7
20260904161504 89 265 2.0 7.0 0.00 0.01 0.01 65 1016.2
20260904161019 88 266 4.0 8.0 0.00 0.01 0.01 68 1015.6
20260904161005 88 266 1.0 4.0 0.00 0.01 0.01 68 1016.3
20260904160503 88 227 4.0 8.0 0.00 0.01 0.01 67 1015.6
20260904160016 88 227 5.0 9.0 0.00 0.01 0.01 68 1015.6
20260904160008 88 214 2.0 6.0 0.00 0.01 0.01 68 1016.4
20260904155506 87 194 6.0 9.0 0.00 0.01 0.01 70 1015.6
20260904155006 87 188 4.0 10.0 0.00 0.01 0.01 71 1015.6
20260904155003 87 163 1.0 5.0 0.00 0.01 0.01 71 1016.4
20260904154521 86 218 2.0 5.0 0.00 0.01 0.01 70 1016.5
20260904154514 86 212 5.0 10.0 0.00 0.01 0.01 70 1015.7
20260904154010 86 217 3.0 11.0 0.00 0.01 0.01 72 1015.7
20260904154008 86 223 1.0 7.0 0.00 0.01 0.01 72 1016.2
20260904153508 86 194 6.0 11.0 0.00 0.01 0.01 73 1015.6
20260904153503 86 202 3.0 7.0 0.00 0.01 0.01 73 1016.2
20260904153018 85 156 6.0 10.0 0.00 0.01 0.01 74 1015.6
20260904153013 85 223 2.0 5.0 0.00 0.01 0.01 74 1016.2
20260904152509 85 188 6.0 10.0 0.00 0.01 0.01 77 1015.5
20260904152011 85 226 2.0 5.0 0.00 0.01 0.01 77 1016.1
20260904151529 84 183 6.0 10.0 0.00 0.01 0.01 78 1015.4
20260904151511 84 204 2.0 4.0 0.00 0.01 0.01 78 1016.1
20260904151006 84 196 6.0 10.0 0.00 0.01 0.01 79 1015.4
20260904151003 84 210 1.0 4.0 0.00 0.01 0.01 79 1016.2
20260904150514 84 227 7.0 10.0 0.00 0.01 0.01 78 1015.4
20260904150503 84 237 3.0 4.0 0.00 0.01 0.01 78 1016.2
20260904150033 85 202 7.0 9.0 0.00 0.01 0.01 80 1015.3
20260904150014 85 229 1.0 5.0 0.00 0.01 0.01 80 1016.2
20260904145507 85 157 6.0 12.0 0.00 0.01 0.01 81 1015.2
20260904145504 85 242 1.0 5.0 0.00 0.01 0.01 81 1016.1
20260904145010 85 175 8.0 11.0 0.00 0.01 0.01 81 1015.3
20260904145004 85 209 2.0 5.0 0.00 0.01 0.01 81 1016.1
20260904144528 85 261 4.0 9.0 0.00 0.01 0.01 81 1015.3
20260904144509 85 238 2.0 5.0 0.00 0.01 0.01 81 1016.0
20260904144007 84 242 1.0 3.0 0.00 0.01 0.01 85 1016.0
20260904143514 83 186 1.0 3.0 0.00 0.01 0.01 86 1015.9
20260904143505 83 216 4.0 6.0 0.00 0.01 0.01 86 1015.3
20260904143029 82 219 3.0 6.0 0.00 0.01 0.01 86 1015.3
20260904143018 82 227 1.0 3.0 0.00 0.01 0.01 86 1015.9
20260904142511 81 214 5.0 7.0 0.00 0.01 0.01 87 1015.3
20260904142504 81 205 1.0 4.0 0.00 0.01 0.01 87 1015.9
20260904142009 81 190 4.0 6.0 0.00 0.01 0.01 88 1015.3
20260904142007 81 196 0.0 4.0 0.00 0.01 0.01 88 1016.0
20260904141531 81 212 0.0 3.0 0.00 0.01 0.01 89 1016.0
20260904141523 81 175 2.0 6.0 0.00 0.01 0.01 89 1015.3
20260904141013 81 194 3.0 6.0 0.00 0.01 0.01 88 1015.2
20260904141011 81 212 0.0 3.0 0.00 0.01 0.01 88 1015.9
20260904140515 81 206 3.0 5.0 0.00 0.01 0.01 88 1015.2
20260904140503 81 235 1.0 3.0 0.00 0.01 0.01 88 1015.8
20260904140034 80 175 3.0 6.0 0.00 0.01 0.01 90 1015.1
20260904140004 80 211 0.0 2.0 0.00 0.01 0.01 90 1015.8
20260904135517 80 203 3.0 6.0 0.00 0.01 0.01 90 1015.0
20260904135504 80 209 0.0 3.0 0.00 0.01 0.01 90 1015.7
20260904135016 80 221 3.0 6.0 0.00 0.01 0.01 90 1014.8
20260904135004 80 221 0.0 3.0 0.00 0.01 0.01 90 1015.5
20260904134534 80 210 3.0 5.0 0.00 0.01 0.01 90 1014.7
20260904134509 80 225 2.0 3.0 0.00 0.01 0.01 90 1015.4
20260904134008 79 227 3.0 5.0 0.00 0.01 0.01 91 1014.7
20260904134005 79 213 0.0 3.0 0.00 0.01 0.01 91 1015.4
20260904133513 79 241 3.0 5.0 0.00 0.01 0.01 90 1014.6
20260904133507 79 227 1.0 2.0 0.00 0.01 0.01 90 1015.4
20260904133017 79 221 3.0 5.0 0.00 0.01 0.01 91 1014.6
20260904133012 79 232 1.0 2.0 0.00 0.01 0.01 91 1015.4
20260904132510 79 229 0.0 2.0 0.00 0.01 0.01 91 1015.4
20260904132010 79 200 2.0 5.0 0.00 0.01 0.01 91 1014.5
20260904131530 78 218 2.0 7.0 0.00 0.01 0.01 92 1014.5
20260904131508 78 205 1.0 3.0 0.00 0.01 0.01 92 1015.3
20260904131013 78 203 2.0 7.0 0.00 0.01 0.01 92 1014.4
20260904131007 78 217 1.0 3.0 0.00 0.01 0.01 92 1015.2
20260904130517 78 242 0.0 2.0 0.00 0.01 0.01 93 1015.2
20260904130511 78 201 3.0 7.0 0.00 0.01 0.01 93 1014.3
20260904130027 78 200 3.0 8.0 0.00 0.01 0.01 92 1014.2
20260904125514 78 211 4.0 8.0 0.00 0.01 0.01 93 1014.1
20260904125505 78 226 0.0 5.0 0.00 0.01 0.01 93 1015.0
20260904125012 78 205 5.0 8.0 0.00 0.01 0.01 93 1014.1
20260904125005 78 211 1.0 5.0 0.00 0.01 0.01 93 1014.9
20260904124527 78 219 4.0 5.0 0.01 0.01 0.01 93 1014.3
20260904124509 78 225 1.0 3.0 0.01 0.01 0.01 93 1014.7
20260904124016 78 184 3.0 5.0 0.01 0.01 0.01 93 1014.3
20260904124004 78 209 0.0 3.0 0.01 0.01 0.01 93 1014.7
20260904123519 78 198 4.0 5.0 0.01 0.01 0.01 93 1014.2
20260904123506 78 230 1.0 3.0 0.01 0.01 0.01 93 1014.7
20260904123032 78 216 2.0 5.0 0.01 0.01 0.01 93 1014.2
20260904123015 78 223 1.0 3.0 0.01 0.01 0.01 93 1014.9
20260904122518 78 203 3.0 5.0 0.01 0.01 0.01 92 1014.2
20260904122508 78 223 1.0 3.0 0.01 0.01 0.01 92 1014.8
20260904122010 78 217 3.0 7.0 0.01 0.01 0.01 92 1014.2
20260904122006 78 219 1.0 3.0 0.01 0.01 0.01 92 1014.9
20260904121521 78 207 3.0 7.0 0.01 0.01 0.01 92 1014.1
20260904121518 78 219 1.0 2.0 0.01 0.01 0.01 92 1014.9
20260904121014 78 168 3.0 7.0 0.01 0.01 0.01 92 1014.1
20260904121012 78 222 0.0 2.0 0.01 0.01 0.01 92 1014.9
20260904120512 78 201 4.0 9.0 0.01 0.01 0.01 92 1014.1
20260904120503 78 209 1.0 3.0 0.01 0.01 0.01 92 1014.7
20260904120038 78 189 5.0 9.0 0.01 0.01 0.01 92 1014.0
20260904120017 78 211 1.0 3.0 0.01 0.01 0.01 92 1014.6
20260904115512 78 208 5.0 9.0 0.01 0.01 0.01 92 1013.9
20260904115509 78 204 1.0 3.0 0.01 0.01 0.01 92 1014.6
20260904115013 78 198 4.0 7.0 0.01 0.01 0.01 92 1014.1
20260904114531 78 182 3.0 7.0 0.00 0.00 0.00 92 1014.1
20260904114517 78 235 0.0 3.0 0.00 0.00 0.00 92 1014.8
20260904114009 78 218 3.0 7.0 0.00 0.00 0.00 92 1014.1
20260904114005 78 132 0.0 2.0 0.00 0.00 0.00 92 1014.7
20260904113512 78 199 3.0 8.0 0.00 0.00 0.00 92 1014.0
20260904113505 78 170 0.0 2.0 0.00 0.00 0.00 92 1014.7
20260904113036 78 140 4.0 8.0 0.00 0.00 0.00 92 1014.0
20260904113019 78 147 0.0 2.0 0.00 0.00 0.00 92 1014.6
20260904112509 78 119 4.0 7.0 0.00 0.00 0.00 92 1014.0
20260904112506 78 157 1.0 2.0 0.00 0.00 0.00 92 1014.7
20260904112007 77 205 2.0 4.0 0.00 0.00 0.00 92 1014.0
20260904111522 78 175 0.0 2.0 0.00 0.00 0.00 92 1014.6
20260904111504 78 161 1.0 5.0 0.00 0.00 0.00 92 1014.0
20260904111005 78 118 1.0 10.0 0.00 0.00 0.00 92 1014.0
20260904110509 77 137 1.0 4.0 0.00 0.00 0.00 92 1014.7
20260904110507 77 163 3.0 10.0 0.00 0.00 0.00 92 1014.0
20260904110027 77 213 0.0 4.0 0.00 0.00 0.00 91 1014.7
20260904110003 77 155 2.0 5.0 0.00 0.00 0.00 91 1014.1
20260904105505 77 156 1.0 5.0 0.00 0.00 0.00 91 1014.1
20260904105008 77 175 0.0 2.0 0.00 0.00 0.00 91 1014.7
20260904105003 77 151 1.0 3.0 0.00 0.00 0.00 91 1014.1
20260904104527 77 150 0.0 2.0 0.00 0.00 0.00 90 1014.8
20260904104503 77 148 0.0 2.0 0.00 0.00 0.00 90 1014.1
20260904104010 77 171 0.0 2.0 0.00 0.00 0.00 90 1014.7
20260904104002 77 134 0.0 2.0 0.00 0.00 0.00 90 1014.0
20260904103506 77 131 0.0 3.0 0.00 0.00 0.00 90 1014.6
20260904103502 77 86 1.0 4.0 0.00 0.00 0.00 90 1013.9
20260904103019 77 155 1.0 4.0 0.00 0.00 0.00 90 1013.9
20260904103012 77 159 0.0 3.0 0.00 0.00 0.00 90 1014.6
20260904102506 77 178 0.0 2.0 0.00 0.00 0.00 90 1014.6
20260904102501 77 151 1.0 2.0 0.00 0.00 0.00 90 1013.9
20260904102005 77 132 0.0 2.0 0.00 0.00 0.00 90 1014.7
20260904102003 77 147 0.0 2.0 0.00 0.00 0.00 90 1014.0
20260904101519 77 165 0.0 2.0 0.00 0.00 0.00 90 1014.7
20260904101515 77 179 0.0 2.0 0.00 0.00 0.00 90 1014.0
20260904101010 78 130 0.0 3.0 0.00 0.00 0.00 90 1014.0
20260904101007 78 144 0.0 2.0 0.00 0.00 0.00 90 1014.6
20260904100507 78 80 0.0 2.0 0.00 0.00 0.00 89 1014.6
20260904100503 78 96 1.0 2.0 0.00 0.00 0.00 89 1014.0
20260904100026 78 88 0.0 2.0 0.00 0.00 0.00 89 1013.9
20260904100014 78 116 0.0 2.0 0.00 0.00 0.00 89 1014.6
20260904095511 78 101 0.0 2.0 0.00 0.00 0.00 89 1013.9
20260904095509 78 116 0.0 2.0 0.00 0.00 0.00 89 1014.6
20260904095014 78 115 0.0 2.0 0.00 0.00 0.00 89 1014.5
20260904094523 78 115 0.0 2.0 0.00 0.00 0.00 88 1014.5
20260904094508 78 101 0.0 2.0 0.00 0.00 0.00 88 1013.8
20260904094008 78 103 0.0 2.0 0.00 0.00 0.00 89 1014.5
20260904094001 78 73 0.0 2.0 0.00 0.00 0.00 89 1013.8
20260904093510 78 103 0.0 2.0 0.00 0.00 0.00 88 1014.5
20260904093502 78 73 0.0 2.0 0.00 0.00 0.00 88 1013.7
20260904093028 78 90 0.0 2.0 0.00 0.00 0.00 88 1014.5
20260904093007 78 71 0.0 2.0 0.00 0.00 0.00 88 1013.7
20260904092506 78 126 0.0 2.0 0.00 0.00 0.00 88 1014.5
20260904092502 78 71 0.0 2.0 0.00 0.00 0.00 88 1013.7
20260904092007 78 105 0.0 2.0 0.00 0.00 0.00 88 1014.4
20260904092005 78 71 0.0 2.0 0.00 0.00 0.00 88 1013.7
20260904091514 78 105 0.0 2.0 0.00 0.00 0.00 88 1014.4
20260904091511 78 128 0.0 2.0 0.00 0.00 0.00 88 1013.6
20260904091008 78 122 0.0 2.0 0.00 0.00 0.00 88 1014.4
20260904091003 78 128 0.0 2.0 0.00 0.00 0.00 88 1013.6
20260904090507 78 141 0.0 2.0 0.00 0.00 0.00 88 1014.3
20260904090024 78 92 0.0 1.0 0.00 0.00 0.00 88 1014.3
20260904090019 78 128 0.0 2.0 0.00 0.00 0.00 88 1013.5
20260904085513 78 105 0.0 1.0 0.00 0.00 0.00 88 1014.3
20260904085504 78 128 0.0 2.0 0.00 0.00 0.00 88 1013.5
20260904085007 78 103 0.0 2.0 0.00 0.00 0.00 87 1014.3
20260904085004 78 128 0.0 2.0 0.00 0.00 0.00 87 1013.6
20260904084533 78 128 0.0 2.0 0.00 0.00 0.00 87 1013.6
20260904084525 78 97 0.0 2.0 0.00 0.00 0.00 87 1014.4
20260904084018 78 128 0.0 2.0 0.00 0.00 0.00 87 1013.6
20260904084012 78 113 0.0 2.0 0.00 0.00 0.00 87 1014.4
20260904083511 78 142 0.0 2.0 0.00 0.00 0.00 87 1014.3
20260904083503 78 128 0.0 2.0 0.00 0.00 0.00 87 1013.6
20260904083017 78 160 0.0 2.0 0.00 0.00 0.00 87 1014.3
20260904083007 78 92 0.0 2.0 0.00 0.00 0.00 87 1013.6
20260904082512 78 146 0.0 2.0 0.00 0.00 0.00 87 1014.4
20260904082503 78 100 0.0 2.0 0.00 0.00 0.00 87 1013.6
20260904082012 78 137 0.0 2.0 0.00 0.00 0.00 87 1014.3
20260904082002 78 100 0.0 2.0 0.00 0.00 0.00 87 1013.6
20260904081515 78 118 0.0 2.0 0.00 0.00 0.00 87 1014.3
20260904081510 78 100 0.0 2.0 0.00 0.00 0.00 87 1013.6
20260904081006 78 119 0.0 2.0 0.00 0.00 0.00 87 1014.3
20260904080508 78 184 0.0 2.0 0.00 0.00 0.00 87 1014.4
20260904080014 78 184 0.0 2.0 0.00 0.00 0.00 87 1014.5
20260904080008 78 155 0.0 2.0 0.00 0.00 0.00 87 1013.8
20260904075512 78 184 0.0 2.0 0.00 0.00 0.00 87 1014.4
20260904075509 78 155 0.0 2.0 0.00 0.00 0.00 87 1013.7
20260904075011 79 155 0.0 2.0 0.00 0.00 0.00 86 1013.6
20260904074527 79 176 0.0 2.0 0.00 0.00 0.00 86 1014.4
20260904074509 79 155 0.0 3.0 0.00 0.00 0.00 86 1013.6
20260904074007 79 155 0.0 3.0 0.00 0.00 0.00 86 1013.7
20260904073514 79 176 0.0 2.0 0.00 0.00 0.00 86 1014.4
20260904073510 79 158 0.0 2.0 0.00 0.00 0.00 86 1013.7
20260904073029 79 176 0.0 2.0 0.00 0.00 0.00 87 1014.5
20260904073027 79 158 1.0 4.0 0.00 0.00 0.00 87 1013.8
20260904072514 78 176 0.0 2.0 0.00 0.00 0.00 86 1014.5
20260904072504 78 177 1.0 4.0 0.00 0.00 0.00 86 1013.8
20260904072007 79 176 0.0 2.0 0.00 0.00 0.00 86 1014.6
20260904072004 79 147 0.0 3.0 0.00 0.00 0.00 86 1013.8
20260904071531 79 190 0.0 2.0 0.00 0.00 0.00 86 1014.5
20260904071507 79 146 0.0 3.0 0.00 0.00 0.00 86 1013.8
20260904071015 79 205 0.0 2.0 0.00 0.00 0.00 86 1014.6
20260904071004 79 171 0.0 2.0 0.00 0.00 0.00 86 1013.9
20260904070507 79 205 0.0 2.0 0.00 0.00 0.00 86 1014.6
20260904070505 79 174 1.0 5.0 0.00 0.00 0.00 86 1014.0
20260904070018 79 153 1.0 5.0 0.00 0.00 0.00 85 1014.0
20260904065510 79 173 0.0 3.0 0.00 0.00 0.00 85 1014.7
20260904065006 79 166 0.0 3.0 0.00 0.00 0.00 86 1014.7
20260904065003 79 140 1.0 5.0 0.00 0.00 0.00 86 1014.0
20260904064524 79 140 0.0 2.0 0.00 0.00 0.00 85 1014.6
20260904064010 79 194 0.0 2.0 0.00 0.00 0.00 85 1014.6
20260904063510 79 189 3.0 6.0 0.00 0.00 0.00 85 1014.0
20260904063025 79 198 0.0 2.0 0.00 0.00 0.00 85 1014.7
20260904063020 79 188 3.0 6.0 0.00 0.00 0.00 85 1014.0
20260904062513 79 186 2.0 6.0 0.00 0.00 0.00 85 1013.9
20260904062016 79 156 0.0 2.0 0.00 0.00 0.00 85 1014.5
20260904061538 79 173 0.0 2.0 0.00 0.00 0.00 85 1014.5
20260904061511 79 159 2.0 5.0 0.00 0.00 0.00 85 1013.8
20260904061011 79 168 3.0 6.0 0.00 0.00 0.00 84 1013.9
20260904061007 79 202 0.0 2.0 0.00 0.00 0.00 84 1014.6
20260904060514 79 200 0.0 2.0 0.00 0.00 0.00 85 1014.6
20260904060506 79 117 1.0 7.0 0.00 0.00 0.00 85 1013.9
20260904060012 79 192 2.0 7.0 0.00 0.00 0.00 84 1014.0
20260904060007 79 237 0.0 2.0 0.00 0.00 0.00 84 1014.7
20260904055508 79 183 0.0 3.0 0.00 0.00 0.00 84 1014.7
20260904055506 79 169 2.0 8.0 0.00 0.00 0.00 84 1014.0
20260904055009 79 147 0.0 3.0 0.00 0.00 0.00 84 1014.7
20260904054528 79 193 0.0 2.0 0.00 0.00 0.00 84 1014.7
20260904054517 79 123 2.0 7.0 0.00 0.00 0.00 84 1014.0
20260904054007 79 135 0.0 2.0 0.00 0.00 0.00 84 1014.6
20260904053513 79 157 2.0 5.0 0.00 0.00 0.00 84 1014.1
20260904053508 79 230 0.0 2.0 0.00 0.00 0.00 84 1014.7
20260904053034 79 171 0.0 2.0 0.00 0.00 0.00 84 1014.6
20260904053028 79 162 1.0 5.0 0.00 0.00 0.00 84 1013.9
20260904052514 79 192 1.0 6.0 0.00 0.00 0.00 84 1013.8
20260904052504 79 274 0.0 2.0 0.00 0.00 0.00 84 1014.5
20260904052009 79 199 2.0 6.0 0.00 0.00 0.00 84 1013.8
20260904051528 79 208 2.0 6.0 0.00 0.00 0.00 83 1013.7
20260904051526 79 159 1.0 3.0 0.00 0.00 0.00 83 1014.5
20260904051015 79 148 2.0 8.0 0.00 0.00 0.00 83 1013.7
20260904051002 79 223 0.0 2.0 0.00 0.00 0.00 83 1014.4
20260904050505 80 152 2.0 8.0 0.00 0.00 0.00 83 1013.7
20260904050502 80 172 0.0 3.0 0.00 0.00 0.00 83 1014.4
20260904050022 79 156 2.0 7.0 0.00 0.00 0.00 83 1013.6
20260904050014 79 140 1.0 3.0 0.00 0.00 0.00 83 1014.3
20260904045508 79 200 1.0 3.0 0.00 0.00 0.00 83 1014.3
20260904045506 79 135 1.0 5.0 0.00 0.00 0.00 83 1013.6
20260904045007 79 153 1.0 7.0 0.00 0.00 0.00 83 1013.7
20260904044517 79 164 2.0 7.0 0.00 0.00 0.00 83 1013.7
20260904044009 80 155 2.0 8.0 0.00 0.00 0.00 83 1013.7
20260904043514 80 167 0.0 3.0 0.00 0.00 0.00 83 1014.4
20260904043509 80 111 2.0 8.0 0.00 0.00 0.00 83 1013.6
20260904043012 80 153 3.0 9.0 0.00 0.00 0.00 83 1013.6
20260904042510 80 126 2.0 9.0 0.00 0.00 0.00 83 1013.5
20260904042016 80 154 3.0 9.0 0.00 0.00 0.00 83 1013.5
20260904042014 80 180 0.0 3.0 0.00 0.00 0.00 83 1014.3
20260904041526 80 163 3.0 7.0 0.00 0.00 0.00 82 1013.5
20260904041515 80 157 1.0 4.0 0.00 0.00 0.00 82 1014.2
20260904041008 80 184 1.0 4.0 0.00 0.00 0.00 82 1014.3
20260904040512 80 234 1.0 4.0 0.00 0.00 0.00 82 1014.3
20260904040510 80 148 3.0 7.0 0.00 0.00 0.00 82 1013.5
20260904040037 80 130 2.0 8.0 0.00 0.00 0.00 82 1013.5
20260904040014 80 222 0.0 5.0 0.00 0.00 0.00 82 1014.2
20260904035506 80 133 3.0 10.0 0.00 0.00 0.00 82 1013.4
20260904035503 80 166 0.0 5.0 0.00 0.00 0.00 82 1014.1
20260904035009 80 119 3.0 10.0 0.00 0.00 0.00 82 1013.5
20260904035006 80 176 0.0 3.0 0.00 0.00 0.00 82 1014.1
20260904034514 80 183 0.0 5.0 0.00 0.00 0.00 82 1014.1
20260904034007 80 155 2.0 9.0 0.00 0.00 0.00 82 1013.4
20260904033513 80 154 2.0 7.0 0.00 0.00 0.00 82 1013.4
20260904033507 80 161 1.0 5.0 0.00 0.00 0.00 82 1014.0
20260904033023 79 155 2.0 8.0 0.00 0.00 0.00 82 1013.4
20260904033017 79 178 0.0 5.0 0.00 0.00 0.00 82 1014.0
20260904032511 79 202 2.0 5.0 0.00 0.00 0.00 82 1014.1
20260904032509 79 96 3.0 8.0 0.00 0.00 0.00 82 1013.4
20260904032013 79 153 3.0 8.0 0.00 0.00 0.00 82 1013.4
20260904032006 79 198 1.0 6.0 0.00 0.00 0.00 82 1014.1
20260904031525 79 153 1.0 7.0 0.00 0.00 0.00 82 1014.1
20260904031523 79 111 2.0 7.0 0.00 0.00 0.00 82 1013.5
20260904031018 79 112 1.0 7.0 0.00 0.00 0.00 82 1013.4
20260904031013 79 142 0.0 7.0 0.00 0.00 0.00 82 1014.1
20260904030517 79 167 1.0 9.0 0.00 0.00 0.00 82 1013.3
20260904030504 79 249 0.0 9.0 0.00 0.00 0.00 82 1014.0
20260904030016 79 143 1.0 9.0 0.00 0.00 0.00 81 1013.3
20260904025514 79 56 1.0 8.0 0.00 0.00 0.00 81 1013.2
20260904025510 79 126 0.0 2.0 0.00 0.00 0.00 81 1014.0
20260904025014 80 161 2.0 7.0 0.00 0.00 0.00 81 1013.3
20260904025003 80 211 0.0 3.0 0.00 0.00 0.00 81 1014.0
20260904024533 80 109 1.0 5.0 0.00 0.00 0.00 80 1013.2
20260904024508 80 180 1.0 4.0 0.00 0.00 0.00 80 1013.9
20260904024009 80 132 2.0 7.0 0.00 0.00 0.00 80 1013.1
20260904024006 80 185 1.0 4.0 0.00 0.00 0.00 80 1013.8
20260904023507 80 100 1.0 7.0 0.00 0.00 0.00 80 1013.2
20260904023505 80 182 0.0 4.0 0.00 0.00 0.00 80 1013.8
20260904023018 80 124 2.0 8.0 0.00 0.00 0.00 79 1013.1
20260904023014 80 245 1.0 3.0 0.00 0.00 0.00 79 1013.7
20260904022513 80 61 1.0 8.0 0.00 0.00 0.00 79 1013.0
20260904022510 80 206 0.0 5.0 0.00 0.00 0.00 79 1013.6
20260904022011 80 139 0.0 3.0 0.00 0.00 0.00 78 1013.8
20260904021540 80 201 1.0 8.0 0.00 0.00 0.00 78 1013.8
20260904021531 80 74 1.0 8.0 0.00 0.00 0.00 78 1013.1
20260904021012 80 77 1.0 7.0 0.00 0.00 0.00 77 1013.0
20260904021008 80 254 2.0 8.0 0.00 0.00 0.00 77 1013.7
20260904020510 80 134 2.0 7.0 0.00 0.00 0.00 77 1012.8
20260904020508 80 274 1.0 4.0 0.00 0.00 0.00 77 1013.5
20260904020028 80 131 1.0 3.0 0.00 0.00 0.00 76 1013.3
20260904015515 81 167 2.0 7.0 0.00 0.00 0.00 76 1012.5
20260904015504 81 152 0.0 4.0 0.00 0.00 0.00 76 1013.2
20260904015010 81 130 2.0 7.0 0.00 0.00 0.00 75 1012.4
20260904014531 81 67 1.0 6.0 0.00 0.00 0.00 74 1012.4
20260904014523 81 195 0.0 4.0 0.00 0.00 0.00 74 1013.2
20260904014017 81 110 2.0 7.0 0.00 0.00 0.00 74 1012.3
20260904014004 81 331 0.0 4.0 0.00 0.00 0.00 74 1013.2
20260904013514 81 96 1.0 7.0 0.00 0.00 0.00 73 1012.3
20260904013503 81 133 1.0 5.0 0.00 0.00 0.00 73 1013.1
20260904013023 81 105 2.0 7.0 0.00 0.00 0.00 73 1012.2
20260904013011 81 141 2.0 4.0 0.00 0.00 0.00 73 1013.0
20260904012518 81 150 2.0 7.0 0.00 0.00 0.00 73 1012.2
20260904012508 81 152 1.0 4.0 0.00 0.00 0.00 73 1012.9
20260904012010 82 117 2.0 7.0 0.00 0.00 0.00 72 1012.1
20260904012004 82 117 1.0 4.0 0.00 0.00 0.00 72 1012.8
20260904011528 82 153 2.0 5.0 0.00 0.01 0.00 72 1012.1
20260904011518 82 109 1.0 4.0 0.00 0.01 0.00 72 1012.8
20260904011012 82 135 1.0 4.0 0.00 0.01 0.00 72 1012.8
20260904010512 82 205 1.0 6.0 0.00 0.01 0.00 71 1013.0
20260904010510 82 167 1.0 6.0 0.00 0.01 0.00 71 1012.2
20260904010027 82 181 1.0 6.0 0.00 0.02 0.00 70 1012.2
20260904010018 82 163 1.0 6.0 0.00 0.02 0.00 70 1013.0
20260904005515 83 124 1.0 7.0 0.00 0.04 0.00 70 1012.1
20260904005507 83 126 1.0 4.0 0.00 0.04 0.00 70 1013.1
20260904005016 83 184 1.0 5.0 0.00 0.06 0.00 69 1013.1
20260904004532 83 80 1.0 8.0 0.00 0.08 0.00 69 1012.2
20260904004508 83 146 1.0 8.0 0.00 0.08 0.00 69 1013.0
20260904004012 83 101 1.0 11.0 0.00 0.09 0.00 68 1013.0
20260904004008 83 120 2.0 11.0 0.00 0.09 0.00 68 1012.1
20260904003515 83 169 2.0 11.0 0.00 0.18 0.00 68 1012.9
20260904003033 84 144 3.0 10.0 0.00 0.22 0.00 67 1012.1
20260904003021 84 159 3.0 10.0 0.00 0.22 0.00 67 1013.1
20260904002517 84 71 2.0 8.0 0.00 0.22 0.00 67 1012.1
20260904002504 84 112 2.0 8.0 0.00 0.22 0.00 66 1012.9
20260904002012 84 86 1.0 5.0 0.00 0.22 0.00 66 1012.1
20260904002008 84 14 1.0 5.0 0.00 0.22 0.00 66 1012.9
20260904001531 84 134 1.0 6.0 0.00 0.22 0.00 66 1012.0
20260904001516 84 162 1.0 6.0 0.00 0.22 0.00 66 1012.8
20260904001015 84 144 2.0 6.0 0.00 0.22 0.00 65 1012.0
20260904001006 84 224 1.0 6.0 0.00 0.22 0.00 65 1012.7
20260904000510 85 103 2.0 10.0 0.00 0.22 0.00 65 1012.0
20260904000507 85 118 2.0 10.0 0.00 0.22 0.00 65 1012.8
20260904000025 85 170 2.0 10.0 0.00 0.22 0.00 65 1012.0
20260904000023 85 178 2.0 10.0 0.00 0.22 0.00 65 1012.8
20260903235514 85 91 2.0 10.0 0.00 0.22 0.00 66 1012.0
20260903235511 85 202 1.0 10.0 0.00 0.22 0.00 66 1012.9
20260903235015 85 86 2.0 9.0 0.00 0.22 0.00 66 1012.0
20260903235004 85 272 2.0 10.0 0.00 0.22 0.00 66 1012.9
20260903234525 85 128 2.0 9.0 0.00 0.22 0.00 67 1012.7
20260903234016 85 156 2.0 8.0 0.00 0.22 0.00 67 1012.0
20260903233517 85 73 2.0 10.0 0.00 0.22 0.00 67 1012.1
20260903233507 85 136 1.0 7.0 0.00 0.22 0.00 67 1012.8
20260903233035 85 12 3.0 11.0 0.00 0.22 0.00 67 1012.0
20260903233032 85 194 2.0 11.0 0.00 0.22 0.00 67 1012.8
20260903232514 85 159 3.0 11.0 0.00 0.22 0.00 68 1012.8
20260903232503 85 93 2.0 11.0 0.00 0.22 0.00 68 1012.1
20260903232004 85 273 2.0 8.0 0.00 0.22 0.00 67 1012.8
20260903231517 85 105 3.0 8.0 0.00 0.22 0.00 67 1012.9
20260903231514 85 74 2.0 13.0 0.00 0.22 0.00 67 1012.0
20260903231010 85 194 1.0 8.0 0.00 0.22 0.00 67 1012.9
20260903231006 85 90 3.0 13.0 0.00 0.22 0.00 67 1012.0
20260903230512 85 188 2.0 8.0 0.00 0.22 0.00 66 1012.8
20260903230502 85 88 4.0 11.0 0.00 0.22 0.00 66 1012.0
20260903230029 85 163 2.0 8.0 0.00 0.22 0.00 67 1012.7
20260903230015 85 42 3.0 11.0 0.00 0.22 0.00 67 1011.9
20260903225509 85 151 3.0 13.0 0.00 0.22 0.00 66 1012.7
20260903225505 85 71 3.0 11.0 0.00 0.22 0.00 66 1011.9
20260903225013 86 156 2.0 12.0 0.00 0.22 0.00 67 1012.6
20260903225003 86 86 4.0 11.0 0.00 0.22 0.00 67 1011.9
20260903224531 86 222 3.0 8.0 0.00 0.22 0.00 65 1012.6
20260903224515 86 173 2.0 8.0 0.00 0.22 0.00 65 1011.9
20260903224012 86 175 1.0 9.0 0.00 0.22 0.00 66 1012.6
20260903224003 86 52 3.0 9.0 0.00 0.22 0.00 66 1011.9
20260903223509 86 227 3.0 9.0 0.00 0.22 0.00 65 1012.5
20260903223503 86 147 3.0 10.0 0.00 0.22 0.00 65 1011.8
20260903223030 86 153 2.0 8.0 0.00 0.22 0.00 65 1012.5
20260903223004 86 81 4.0 11.0 0.00 0.22 0.00 65 1011.9
20260903222516 86 244 2.0 11.0 0.00 0.22 0.00 65 1012.6
20260903222506 86 169 3.0 14.0 0.00 0.22 0.00 65 1011.8
20260903222008 86 156 3.0 11.0 0.00 0.22 0.00 65 1012.6
20260903221515 87 83 5.0 13.0 0.00 0.22 0.00 67 1011.8
20260903221511 87 215 3.0 12.0 0.00 0.22 0.00 67 1012.5
20260903221006 87 117 4.0 12.0 0.00 0.22 0.00 64 1012.6
20260903221003 87 120 5.0 13.0 0.00 0.22 0.00 64 1011.9
20260903220508 88 67 4.0 12.0 0.00 0.22 0.00 64 1012.5
20260903220503 88 5 4.0 12.0 0.00 0.22 0.00 64 1011.8
20260903220023 90 175 4.0 12.0 0.00 0.22 0.00 63 1011.7
20260903220018 90 140 2.0 11.0 0.00 0.22 0.00 63 1012.4
20260903215511 90 238 3.0 10.0 0.00 0.22 0.00 63 1012.4
20260903215504 90 36 4.0 16.0 0.00 0.22 0.00 63 1011.6
20260903215013 90 93 4.0 10.0 0.00 0.22 0.00 64 1012.4
20260903215004 90 93 4.0 16.0 0.00 0.22 0.00 64 1011.7
20260903214523 90 173 3.0 10.0 0.00 0.22 0.00 63 1012.4
20260903214516 90 99 6.0 16.0 0.00 0.22 0.00 63 1011.7
20260903214012 89 108 2.0 19.0 0.00 0.22 0.00 66 1012.4
20260903214007 89 49 5.0 18.0 0.00 0.22 0.00 66 1011.9
20260903213518 90 203 4.0 19.0 0.00 0.22 0.00 67 1012.7
20260903213503 90 124 5.0 18.0 0.00 0.22 0.00 67 1011.9
20260903213016 91 98 2.0 12.0 0.00 0.22 0.00 66 1012.7
20260903213005 91 154 4.0 11.0 0.00 0.22 0.00 66 1011.8
20260903212512 91 170 3.0 12.0 0.00 0.22 0.00 66 1012.6
20260903212504 91 26 2.0 11.0 0.00 0.22 0.00 66 1011.9
20260903212015 91 104 2.0 10.0 0.00 0.22 0.00 65 1012.5
20260903212005 91 63 3.0 11.0 0.00 0.22 0.00 65 1011.9
20260903211532 91 128 2.0 8.0 0.00 0.22 0.00 65 1012.8
20260903211510 91 63 4.0 11.0 0.00 0.22 0.00 65 1011.9
20260903211010 91 268 1.0 8.0 0.00 0.22 0.00 65 1012.8
20260903211007 91 84 2.0 11.0 0.00 0.22 0.00 65 1011.9
20260903210507 91 123 2.0 9.0 0.00 0.22 0.00 65 1012.9
20260903210014 91 61 3.0 9.0 0.00 0.22 0.00 66 1012.7
20260903210011 91 79 2.0 10.0 0.00 0.22 0.00 66 1012.0
20260903205506 91 84 3.0 10.0 0.00 0.22 0.00 66 1011.9
20260903205010 91 315 3.0 8.0 0.00 0.22 0.00 62 1012.8
20260903205005 91 341 4.0 9.0 0.00 0.22 0.00 62 1012.0
20260903204524 92 249 2.0 10.0 0.00 0.22 0.00 59 1012.8
20260903204513 92 22 3.0 10.0 0.00 0.22 0.00 59 1012.0
20260903204012 93 96 1.0 10.0 0.00 0.22 0.00 55 1012.9
20260903204007 93 94 2.0 10.0 0.00 0.22 0.00 55 1012.0
20260903203510 93 119 1.0 10.0 0.00 0.22 0.00 55 1012.0
20260903203507 93 44 3.0 10.0 0.00 0.22 0.00 55 1012.9
20260903203028 93 9 3.0 10.0 0.00 0.22 0.00 55 1013.0
20260903203014 93 88 2.0 9.0 0.00 0.22 0.00 55 1012.1
20260903202516 93 27 2.0 10.0 0.00 0.22 0.00 56 1013.0
20260903202503 93 176 3.0 8.0 0.00 0.22 0.00 56 1012.3
20260903202010 93 60 2.0 8.0 0.00 0.22 0.00 57 1012.3
20260903202006 93 120 1.0 7.0 0.00 0.22 0.00 57 1013.0
20260903201526 92 100 1.0 8.0 0.00 0.22 0.00 59 1013.2
20260903201514 92 171 3.0 11.0 0.00 0.22 0.00 59 1012.4
20260903201019 92 204 1.0 8.0 0.00 0.22 0.00 58 1013.4
20260903201002 92 67 6.0 11.0 0.00 0.22 0.00 58 1012.4
20260903200518 92 78 2.0 6.0 0.00 0.22 0.00 60 1013.3
20260903200506 92 10 1.0 6.0 0.00 0.22 0.00 60 1012.4
20260903200018 92 61 2.0 8.0 0.00 0.22 0.00 58 1013.4
20260903200016 92 40 1.0 8.0 0.00 0.22 0.00 58 1012.5
20260903195510 92 345 3.0 7.0 0.00 0.22 0.00 57 1013.4
20260903195507 92 317 1.0 4.0 0.00 0.22 0.00 57 1012.5
20260903195010 93 149 1.0 6.0 0.00 0.22 0.00 57 1013.3
20260903195003 93 94 1.0 3.0 0.00 0.22 0.00 57 1012.5
20260903194518 93 150 1.0 6.0 0.00 0.22 0.00 57 1013.3
20260903194515 93 140 1.0 6.0 0.00 0.22 0.00 57 1012.5
20260903194015 92 151 2.0 8.0 0.00 0.22 0.00 57 1013.3
20260903194006 92 281 1.0 8.0 0.00 0.22 0.00 57 1012.5
20260903193512 93 99 2.0 8.0 0.00 0.22 0.00 58 1013.5
20260903193503 93 109 2.0 8.0 0.00 0.22 0.00 58 1012.5
20260903193027 93 9 1.0 4.0 0.00 0.22 0.00 57 1013.4
20260903193012 93 57 1.0 6.0 0.00 0.22 0.00 57 1012.5
20260903192510 92 99 2.0 5.0 0.00 0.22 0.00 58 1013.5
20260903192507 92 111 2.0 6.0 0.00 0.22 0.00 58 1012.7
20260903192014 92 103 0.0 5.0 0.00 0.22 0.00 59 1013.6
20260903192009 92 126 2.0 5.0 0.00 0.22 0.00 59 1012.7
20260903191539 92 207 1.0 5.0 0.00 0.22 0.00 57 1013.5
20260903191509 92 334 1.0 5.0 0.00 0.22 0.00 57 1012.8
20260903191010 92 192 0.0 7.0 0.00 0.22 0.00 58 1013.7
20260903191002 92 98 2.0 7.0 0.00 0.22 0.00 58 1012.9
20260903190514 92 200 0.0 7.0 0.00 0.22 0.00 58 1013.7
20260903190504 92 78 2.0 5.0 0.00 0.22 0.00 58 1012.9
20260903190033 92 273 1.0 4.0 0.00 0.22 0.00 59 1013.8
20260903190012 92 121 1.0 3.0 0.00 0.22 0.00 59 1013.0
20260903185519 92 121 1.0 4.0 0.00 0.22 0.00 61 1013.9
20260903185509 92 105 1.0 8.0 0.00 0.22 0.00 61 1013.1
20260903185010 92 192 0.0 3.0 0.00 0.22 0.00 57 1013.9
20260903185007 92 109 2.0 9.0 0.00 0.22 0.00 57 1013.2
20260903184523 93 250 4.0 9.0 0.00 0.22 0.00 56 1013.2
20260903184515 93 250 1.0 3.0 0.00 0.22 0.00 56 1014.1
20260903184009 93 176 0.0 3.0 0.00 0.22 0.00 56 1014.1
20260903183509 92 106 2.0 8.0 0.00 0.22 0.00 54 1013.4
20260903183028 92 196 1.0 7.0 0.00 0.22 0.00 59 1014.3
20260903183023 92 126 3.0 8.0 0.00 0.22 0.00 59 1013.4
20260903182512 91 144 0.0 7.0 0.00 0.22 0.00 59 1014.3
20260903182510 91 94 3.0 7.0 0.00 0.22 0.00 59 1013.6
20260903182012 92 270 0.0 9.0 0.00 0.22 0.00 56 1014.4
20260903182008 92 71 1.0 9.0 0.00 0.22 0.00 56 1013.7
20260903181522 93 142 1.0 9.0 0.00 0.22 0.00 56 1014.4
20260903181016 94 61 1.0 6.0 0.00 0.22 0.00 55 1014.5
20260903181011 94 152 1.0 9.0 0.00 0.22 0.00 55 1013.8
20260903180515 93 10 1.0 7.0 0.00 0.22 0.00 58 1014.7
20260903180504 93 146 3.0 11.0 0.00 0.22 0.00 58 1013.8
20260903180020 94 182 1.0 7.0 0.00 0.22 0.00 55 1014.8
20260903180017 94 23 2.0 11.0 0.00 0.22 0.00 55 1014.0
20260903175506 96 144 1.0 4.0 0.00 0.22 0.00 53 1014.9
20260903175503 96 129 2.0 8.0 0.00 0.22 0.00 53 1014.1
20260903175007 95 151 3.0 9.0 0.00 0.22 0.00 54 1014.1
20260903175004 95 200 1.0 4.0 0.00 0.22 0.00 54 1014.9
20260903174515 94 167 4.0 9.0 0.00 0.22 0.00 55 1014.2
20260903174009 93 74 2.0 7.0 0.00 0.22 0.00 55 1014.2
20260903173511 91 360 1.0 6.0 0.00 0.22 0.00 59 1015.0
20260903173509 91 85 2.0 7.0 0.00 0.22 0.00 59 1014.5
20260903173023 92 323 1.0 7.0 0.00 0.22 0.00 56 1014.5
20260903173012 92 142 1.0 6.0 0.00 0.22 0.00 56 1015.1
20260903172510 93 155 2.0 9.0 0.00 0.22 0.00 57 1014.5
20260903172507 93 306 1.0 5.0 0.00 0.22 0.00 57 1015.2
20260903172012 94 150 4.0 12.0 0.00 0.22 0.00 58 1014.6
20260903172010 94 191 2.0 4.0 0.00 0.22 0.00 58 1015.3
20260903171535 93 199 1.0 4.0 0.00 0.22 0.00 62 1015.2
20260903171523 93 166 6.0 12.0 0.00 0.22 0.00 62 1014.5
20260903171009 92 94 3.0 10.0 0.00 0.22 0.00 60 1014.5
20260903171006 92 153 1.0 5.0 0.00 0.22 0.00 60 1015.1
20260903170511 92 165 3.0 14.0 0.00 0.22 0.00 64 1014.5
20260903170035 92 139 2.0 7.0 0.00 0.22 0.00 64 1015.1
20260903170032 92 178 5.0 14.0 0.00 0.22 0.00 64 1014.5
20260903165504 90 248 1.0 7.0 0.00 0.22 0.00 64 1015.1
20260903165009 90 200 1.0 5.0 0.00 0.22 0.00 67 1015.1
20260903165005 90 208 4.0 13.0 0.00 0.22 0.00 67 1014.6
20260903164512 89 234 1.0 6.0 0.00 0.22 0.00 68 1015.2
20260903164008 89 273 2.0 6.0 0.00 0.22 0.00 65 1015.3
20260903163511 89 149 2.0 9.0 0.00 0.22 0.00 64 1015.3
20260903163507 89 182 5.0 13.0 0.00 0.22 0.00 64 1014.5
20260903163020 89 205 7.0 15.0 0.00 0.22 0.00 66 1014.5
20260903163016 89 173 4.0 8.0 0.00 0.22 0.00 66 1015.2
20260903162510 89 158 8.0 15.0 0.00 0.22 0.00 68 1014.5